User: anonymous   Login
Location: Équennes
(49.7375°N, 1.9622°E)
Time: 14:53:04
(UTC+00:00)
Language:

IRIDIUM 103 - Orbit

View from above orbital plane
View from above orbital plane
View from above satellite
View from above satellite

Ground track
Ground track

The orbit data is extracted from the following two-line orbital elements,

1 41918U 17003B   23160.55414700  .00000054  00000-0  12143-4 0  9996
2 41918  86.3999 189.6169 0002498  84.8182 275.3299 14.34217023335042
Epoch (UTC): 09 June 2023 13:17:58
Eccentricity: 0.0002498
inclination: 86.3999°
perigee height: 776 km
apogee height: 779 km
right ascension of ascending node: 189.6169°
argument of perigee: 84.8182°
revolutions per day: 14.34217023
mean anomaly at epoch: 275.3299°
orbit number at epoch: 33504

The dashed part of the orbit path shows where the satellite is in the earth's shadow,  

DLR